| time (UTC) | temp F | wind direction | speed MPH | gust MPH | rain 1hr in | rain 24hr in | rain mn in | humidity % | barometer mb |
| 20260505035126 | 44 | 275 | 2.0 | 2.0 | 0.00 | 0.00 | 0.00 | 55 | 1005.0 |
| 20260505034623 | 44 | 274 | 2.0 | 2.0 | 0.00 | 0.00 | 0.00 | 54 | 1005.0 |
| 20260505034120 | 44 | 263 | 2.0 | 2.0 | 0.00 | 0.00 | 0.00 | 53 | 1004.9 |
| 20260505033617 | 44 | 253 | 2.0 | 2.0 | 0.00 | 0.00 | 0.00 | 53 | 1005.0 |
| 20260505033116 | 44 | 309 | 2.0 | 3.0 | 0.00 | 0.00 | 0.00 | 52 | 1004.9 |
| 20260505032613 | 44 | 296 | 3.0 | 3.0 | 0.00 | 0.00 | 0.00 | 51 | 1004.8 |
| 20260505032109 | 44 | 265 | 2.0 | 2.0 | 0.00 | 0.00 | 0.00 | 51 | 1004.8 |
| 20260505031606 | 45 | 291 | 3.0 | 3.0 | 0.00 | 0.00 | 0.00 | 51 | 1004.8 |
| 20260505031102 | 45 | 288 | 2.0 | 2.0 | 0.00 | 0.00 | 0.00 | 51 | 1004.7 |
| 20260505030559 | 45 | 257 | 2.0 | 2.0 | 0.00 | 0.00 | 0.00 | 51 | 1004.8 |
| 20260505030050 | 45 | 284 | 2.0 | 2.0 | 0.00 | 0.00 | 0.00 | 50 | 1004.7 |
| 20260505025546 | 45 | 270 | 2.0 | 2.0 | 0.00 | 0.00 | 0.00 | 49 | 1004.6 |
| 20260505025045 | 45 | 240 | 3.0 | 5.0 | 0.00 | 0.00 | 0.00 | 48 | 1004.7 |
| 20260505024542 | 46 | 254 | 2.0 | 2.0 | 0.00 | 0.00 | 0.00 | 49 | 1004.6 |
| 20260505024039 | 45 | 282 | 2.0 | 2.0 | 0.00 | 0.00 | 0.00 | 49 | 1004.5 |
| 20260505023536 | 46 | 290 | 2.0 | 2.0 | 0.00 | 0.00 | 0.00 | 48 | 1004.4 |
| 20260505023033 | 46 | 310 | 3.0 | 5.0 | 0.00 | 0.00 | 0.00 | 48 | 1004.5 |
| 20260505022531 | 46 | 287 | 2.0 | 3.0 | 0.00 | 0.00 | 0.00 | 47 | 1004.5 |
| 20260505022028 | 46 | 278 | 3.0 | 3.0 | 0.00 | 0.00 | 0.00 | 47 | 1004.4 |
| 20260505021524 | 46 | 244 | 2.0 | 2.0 | 0.00 | 0.00 | 0.00 | 48 | 1004.3 |
| 20260505021020 | 46 | 264 | 3.0 | 3.0 | 0.00 | 0.00 | 0.00 | 47 | 1004.3 |
| 20260505020515 | 46 | 294 | 3.0 | 3.0 | 0.00 | 0.00 | 0.00 | 47 | 1004.2 |
| 20260505020013 | 46 | 249 | 2.0 | 2.0 | 0.00 | 0.00 | 0.00 | 47 | 1004.2 |
| 20260505015509 | 46 | 254 | 2.0 | 2.0 | 0.00 | 0.00 | 0.00 | 47 | 1003.9 |
| 20260505015006 | 46 | 305 | 4.0 | 5.0 | 0.00 | 0.00 | 0.00 | 46 | 1004.0 |
| 20260505014503 | 46 | 289 | 1.0 | 2.0 | 0.00 | 0.00 | 0.00 | 47 | 1003.8 |
| 20260505014001 | 46 | 269 | 3.0 | 3.0 | 0.00 | 0.00 | 0.00 | 46 | 1003.8 |
| 20260505013457 | 46 | 280 | 2.0 | 2.0 | 0.00 | 0.00 | 0.00 | 47 | 1003.8 |
| 20260505012954 | 46 | 248 | 1.0 | 1.0 | 0.00 | 0.00 | 0.00 | 46 | 1003.8 |
| 20260505012453 | 46 | 302 | 2.0 | 2.0 | 0.00 | 0.00 | 0.00 | 46 | 1003.7 |
| 20260505011949 | 47 | 262 | 4.0 | 5.0 | 0.00 | 0.00 | 0.00 | 46 | 1003.6 |
| 20260505011445 | 47 | 338 | 3.0 | 3.0 | 0.00 | 0.00 | 0.00 | 44 | 1003.4 |
| 20260505010942 | 47 | 313 | 4.0 | 5.0 | 0.00 | 0.00 | 0.00 | 44 | 1003.5 |
| 20260505010438 | 48 | 223 | 4.0 | 5.0 | 0.00 | 0.00 | 0.00 | 44 | 1003.3 |
| 20260505005934 | 48 | 290 | 5.0 | 7.0 | 0.00 | 0.00 | 0.00 | 43 | 1003.4 |
| 20260505005431 | 48 | 318 | 6.0 | 7.0 | 0.00 | 0.00 | 0.00 | 43 | 1003.4 |
| 20260505004929 | 48 | 295 | 5.0 | 7.0 | 0.00 | 0.00 | 0.00 | 43 | 1003.5 |
| 20260505004425 | 48 | 291 | 6.0 | 7.0 | 0.00 | 0.00 | 0.00 | 43 | 1003.4 |
| 20260505003922 | 48 | 333 | 8.0 | 10.0 | 0.00 | 0.00 | 0.00 | 43 | 1003.4 |
| 20260505003419 | 48 | 279 | 9.0 | 11.0 | 0.00 | 0.00 | 0.00 | 45 | 1003.4 |
| 20260505002915 | 48 | 321 | 5.0 | 7.0 | 0.00 | 0.00 | 0.00 | 45 | 1003.3 |
| 20260505002412 | 48 | 359 | 9.0 | 11.0 | 0.00 | 0.00 | 0.00 | 45 | 1003.4 |
| 20260505001910 | 49 | 339 | 7.0 | 8.0 | 0.00 | 0.00 | 0.00 | 46 | 1003.3 |
| 20260505001408 | 49 | 337 | 10.0 | 16.0 | 0.00 | 0.00 | 0.00 | 45 | 1003.1 |
| 20260505000905 | 49 | 268 | 7.0 | 9.0 | 0.00 | 0.00 | 0.00 | 45 | 1002.9 |
| 20260505000403 | 50 | 349 | 8.0 | 10.0 | 0.00 | 0.00 | 0.00 | 44 | 1003.0 |
| 20260504235859 | 50 | 320 | 5.0 | 6.0 | 0.00 | 0.00 | 0.00 | 44 | 1002.8 |
| 20260504235356 | 50 | 326 | 7.0 | 8.0 | 0.00 | 0.00 | 0.00 | 44 | 1002.8 |
| 20260504234852 | 51 | 327 | 6.0 | 7.0 | 0.00 | 0.00 | 0.00 | 43 | 1002.6 |
| 20260504234350 | 51 | 327 | 10.0 | 16.0 | 0.00 | 0.00 | 0.00 | 42 | 1002.4 |
| 20260504233846 | 51 | 310 | 7.0 | 8.0 | 0.00 | 0.00 | 0.00 | 43 | 1002.4 |
| 20260504233342 | 51 | 26 | 12.0 | 16.0 | 0.00 | 0.00 | 0.00 | 43 | 1002.3 |
| 20260504232839 | 51 | 311 | 5.0 | 6.0 | 0.00 | 0.00 | 0.00 | 43 | 1002.1 |
| 20260504232336 | 51 | 348 | 7.0 | 8.0 | 0.00 | 0.00 | 0.00 | 42 | 1002.1 |
| 20260504231833 | 52 | 290 | 7.0 | 8.0 | 0.00 | 0.00 | 0.00 | 42 | 1002.2 |
| 20260504231329 | 52 | 342 | 5.0 | 6.0 | 0.00 | 0.00 | 0.00 | 40 | 1001.8 |
| 20260504230825 | 51 | 21 | 6.0 | 8.0 | 0.00 | 0.00 | 0.00 | 42 | 1001.9 |
| 20260504230323 | 51 | 335 | 5.0 | 6.0 | 0.00 | 0.00 | 0.00 | 43 | 1001.9 |
| 20260504225822 | 52 | 4 | 6.0 | 7.0 | 0.00 | 0.00 | 0.00 | 43 | 1001.9 |
| 20260504225318 | 52 | 352 | 6.0 | 7.0 | 0.00 | 0.00 | 0.00 | 42 | 1001.6 |
| 20260504224816 | 53 | 350 | 6.0 | 7.0 | 0.00 | 0.00 | 0.00 | 41 | 1001.6 |
| 20260504224312 | 52 | 316 | 4.0 | 5.0 | 0.00 | 0.00 | 0.00 | 42 | 1001.8 |
| 20260504223809 | 53 | 298 | 3.0 | 5.0 | 0.00 | 0.00 | 0.00 | 42 | 1001.5 |
| 20260504223304 | 52 | 313 | 7.0 | 8.0 | 0.00 | 0.00 | 0.00 | 42 | 1001.5 |
| 20260504222801 | 52 | 324 | 8.0 | 9.0 | 0.00 | 0.00 | 0.00 | 42 | 1001.4 |
| 20260504222258 | 53 | 316 | 6.0 | 10.0 | 0.00 | 0.00 | 0.00 | 43 | 1001.4 |
| 20260504221756 | 53 | 9 | 11.0 | 14.0 | 0.00 | 0.00 | 0.00 | 42 | 1001.2 |
| 20260504221253 | 52 | 319 | 9.0 | 13.0 | 0.00 | 0.00 | 0.00 | 43 | 1001.3 |
| 20260504220749 | 52 | 283 | 9.0 | 11.0 | 0.00 | 0.00 | 0.00 | 44 | 1001.4 |
| 20260504220246 | 52 | 331 | 6.0 | 7.0 | 0.00 | 0.00 | 0.00 | 44 | 1001.2 |
| 20260504215744 | 52 | 332 | 7.0 | 9.0 | 0.00 | 0.00 | 0.00 | 45 | 1001.2 |
| 20260504215240 | 53 | 341 | 6.0 | 8.0 | 0.00 | 0.00 | 0.00 | 45 | 1000.9 |
| 20260504214736 | 53 | 22 | 9.0 | 13.0 | 0.00 | 0.00 | 0.00 | 44 | 1001.1 |
| 20260504214233 | 53 | 331 | 10.0 | 11.0 | 0.00 | 0.00 | 0.00 | 44 | 1000.9 |
| 20260504213730 | 53 | 336 | 7.0 | 8.0 | 0.00 | 0.00 | 0.00 | 44 | 1000.6 |
| 20260504213226 | 53 | 303 | 7.0 | 8.0 | 0.00 | 0.00 | 0.00 | 45 | 1000.7 |
| 20260504212723 | 54 | 0 | 13.0 | 16.0 | 0.00 | 0.00 | 0.00 | 44 | 1000.7 |
| 20260504212220 | 53 | 16 | 12.0 | 21.0 | 0.00 | 0.00 | 0.00 | 44 | 1000.5 |
| 20260504211717 | 54 | 347 | 8.0 | 11.0 | 0.00 | 0.00 | 0.00 | 43 | 1000.7 |
| 20260504211213 | 55 | 332 | 6.0 | 7.0 | 0.00 | 0.00 | 0.00 | 43 | 1000.4 |
| 20260504210711 | 55 | 312 | 9.0 | 10.0 | 0.00 | 0.00 | 0.00 | 42 | 1000.5 |
| 20260504210208 | 54 | 344 | 5.0 | 7.0 | 0.00 | 0.00 | 0.00 | 42 | 1000.6 |
| 20260504205705 | 55 | 311 | 8.0 | 9.0 | 0.00 | 0.00 | 0.00 | 41 | 1000.3 |
| 20260504205202 | 56 | 277 | 8.0 | 10.0 | 0.00 | 0.00 | 0.00 | 42 | 1000.2 |
| 20260504204700 | 57 | 279 | 11.0 | 15.0 | 0.00 | 0.00 | 0.00 | 40 | 1000.2 |
| 20260504204159 | 55 | 275 | 6.0 | 7.0 | 0.00 | 0.00 | 0.00 | 43 | 1000.0 |
| 20260504203657 | 55 | 281 | 9.0 | 9.0 | 0.00 | 0.00 | 0.00 | 43 | 1000.1 |
| 20260504203154 | 56 | 6 | 15.0 | 18.0 | 0.00 | 0.00 | 0.00 | 42 | 999.9 |
| 20260504202649 | 57 | 357 | 7.0 | 9.0 | 0.00 | 0.00 | 0.00 | 41 | 1000.0 |
| 20260504202146 | 57 | 262 | 5.0 | 6.0 | 0.00 | 0.00 | 0.00 | 40 | 999.8 |
| 20260504201643 | 57 | 339 | 9.0 | 10.0 | 0.00 | 0.00 | 0.00 | 42 | 999.9 |
| 20260504201141 | 56 | 316 | 9.0 | 10.0 | 0.00 | 0.00 | 0.00 | 42 | 999.8 |
| 20260504200638 | 56 | 327 | 11.0 | 14.0 | 0.00 | 0.00 | 0.00 | 42 | 1000.0 |
| 20260504200134 | 57 | 291 | 8.0 | 9.0 | 0.00 | 0.00 | 0.00 | 42 | 999.7 |
| 20260504195630 | 57 | 307 | 10.0 | 13.0 | 0.00 | 0.00 | 0.00 | 40 | 999.6 |
| 20260504195126 | 57 | 322 | 7.0 | 9.0 | 0.00 | 0.00 | 0.00 | 41 | 999.5 |
| 20260504194623 | 56 | 359 | 11.0 | 15.0 | 0.00 | 0.00 | 0.00 | 43 | 999.6 |
| 20260504194119 | 57 | 302 | 9.0 | 11.0 | 0.00 | 0.00 | 0.00 | 42 | 999.5 |
| 20260504193616 | 57 | 336 | 10.0 | 13.0 | 0.00 | 0.00 | 0.00 | 41 | 999.4 |
| 20260504193114 | 57 | 359 | 12.0 | 14.0 | 0.00 | 0.00 | 0.00 | 42 | 999.2 |
| 20260504192612 | 57 | 272 | 8.0 | 9.0 | 0.00 | 0.00 | 0.00 | 42 | 999.4 |
| 20260504192110 | 57 | 312 | 9.0 | 10.0 | 0.00 | 0.00 | 0.00 | 44 | 999.1 |
| 20260504191608 | 57 | 280 | 6.0 | 7.0 | 0.00 | 0.00 | 0.00 | 45 | 999.2 |
| 20260504191104 | 59 | 339 | 8.0 | 9.0 | 0.00 | 0.00 | 0.00 | 44 | 999.1 |
| 20260504190600 | 57 | 339 | 6.0 | 7.0 | 0.00 | 0.00 | 0.00 | 45 | 998.8 |
| 20260504190056 | 57 | 12 | 10.0 | 13.0 | 0.00 | 0.00 | 0.00 | 44 | 998.7 |
| 20260504185553 | 59 | 16 | 13.0 | 24.0 | 0.00 | 0.00 | 0.00 | 44 | 998.7 |
| 20260504185050 | 58 | 316 | 7.0 | 7.0 | 0.00 | 0.00 | 0.00 | 43 | 998.6 |
| 20260504184545 | 58 | 314 | 8.0 | 10.0 | 0.00 | 0.00 | 0.00 | 43 | 998.5 |
| 20260504184041 | 59 | 16 | 7.0 | 10.0 | 0.00 | 0.00 | 0.00 | 44 | 998.3 |
| 20260504183538 | 57 | 327 | 5.0 | 7.0 | 0.00 | 0.00 | 0.00 | 46 | 998.5 |
| 20260504183036 | 57 | 296 | 7.0 | 10.0 | 0.00 | 0.00 | 0.00 | 46 | 998.4 |
| 20260504182533 | 57 | 20 | 4.0 | 6.0 | 0.00 | 0.00 | 0.00 | 46 | 998.4 |
| 20260504182030 | 58 | 292 | 9.0 | 10.0 | 0.00 | 0.00 | 0.00 | 45 | 998.1 |
| 20260504181527 | 59 | 324 | 5.0 | 7.0 | 0.00 | 0.00 | 0.00 | 44 | 998.2 |
| 20260504181026 | 59 | 319 | 7.0 | 8.0 | 0.00 | 0.00 | 0.00 | 44 | 998.1 |
| 20260504180524 | 59 | 333 | 7.0 | 9.0 | 0.00 | 0.00 | 0.00 | 44 | 997.9 |
| 20260504180023 | 59 | 252 | 6.0 | 8.0 | 0.00 | 0.00 | 0.00 | 46 | 998.0 |
| 20260504175519 | 59 | 0 | 5.0 | 6.0 | 0.00 | 0.00 | 0.00 | 43 | 997.9 |
| 20260504175016 | 59 | 278 | 10.0 | 13.0 | 0.00 | 0.00 | 0.00 | 43 | 997.9 |
| 20260504174514 | 59 | 273 | 7.0 | 9.0 | 0.00 | 0.00 | 0.00 | 43 | 997.6 |
| 20260504174011 | 59 | 312 | 5.0 | 7.0 | 0.00 | 0.00 | 0.00 | 41 | 997.5 |
| 20260504173508 | 58 | 329 | 9.0 | 13.0 | 0.00 | 0.00 | 0.00 | 42 | 997.6 |
| 20260504173005 | 59 | 259 | 5.0 | 6.0 | 0.00 | 0.00 | 0.00 | 42 | 997.8 |
| 20260504172501 | 58 | 326 | 6.0 | 8.0 | 0.00 | 0.00 | 0.00 | 41 | 997.7 |
| 20260504171957 | 59 | 303 | 9.0 | 10.0 | 0.00 | 0.00 | 0.00 | 41 | 997.9 |
| 20260504171455 | 59 | 318 | 11.0 | 13.0 | 0.00 | 0.00 | 0.00 | 40 | 997.9 |
| 20260504170951 | 59 | 288 | 5.0 | 8.0 | 0.00 | 0.00 | 0.00 | 43 | 997.4 |
| 20260504170447 | 58 | 271 | 6.0 | 7.0 | 0.00 | 0.00 | 0.00 | 43 | 997.8 |
| 20260504160408 | 58 | 285 | 6.0 | 7.0 | 0.00 | 0.00 | 0.00 | 50 | 997.2 |
| 20260504150831 | 58 | 227 | 7.0 | 8.0 | 0.00 | 0.00 | 0.00 | 46 | 996.8 |
| 20260504150328 | 58 | 308 | 5.0 | 7.0 | 0.00 | 0.00 | 0.00 | 49 | 996.7 |
| 20260504141258 | 57 | 294 | 5.0 | 8.0 | 0.00 | 0.00 | 0.00 | 49 | 996.7 |
| 20260504140755 | 56 | 271 | 5.0 | 7.0 | 0.00 | 0.00 | 0.00 | 50 | 996.5 |
| 20260504140250 | 56 | 293 | 7.0 | 7.0 | 0.00 | 0.00 | 0.00 | 50 | 996.6 |
| 20260504130719 | 57 | 316 | 4.0 | 5.0 | 0.00 | 0.00 | 0.00 | 51 | 995.9 |
| 20260504130215 | 57 | 248 | 6.0 | 8.0 | 0.00 | 0.00 | 0.00 | 52 | 995.9 |
| 20260504120139 | 58 | 286 | 8.0 | 10.0 | 0.00 | 0.00 | 0.00 | 49 | 994.7 |
| 20260504110606 | 58 | 252 | 5.0 | 6.0 | 0.00 | 0.00 | 0.00 | 44 | 993.9 |
| 20260504100522 | 58 | 239 | 3.0 | 3.0 | 0.00 | 0.00 | 0.00 | 42 | 993.8 |
| 20260504081916 | 55 | 202 | 2.0 | 2.0 | 0.00 | 0.00 | 0.00 | 45 | 995.6 |
| 20260504081413 | 55 | 231 | 2.0 | 2.0 | 0.00 | 0.00 | 0.00 | 46 | 995.9 |
| 20260504080909 | 55 | 204 | 2.0 | 2.0 | 0.00 | 0.00 | 0.00 | 45 | 996.2 |
| 20260504080406 | 55 | 194 | 0.0 | 1.0 | 0.00 | 0.00 | 0.00 | 46 | 996.4 |
| 20260504070333 | 55 | 220 | 1.0 | 1.0 | 0.00 | 0.00 | 0.00 | 48 | 997.1 |
| 20260504050721 | 56 | 199 | 1.0 | 1.0 | 0.00 | 0.00 | 0.00 | 44 | 999.6 |
| 20260504050218 | 56 | 215 | 1.0 | 2.0 | 0.00 | 0.00 | 0.00 | 45 | 999.8 |
| 20260504045715 | 56 | 204 | 1.0 | 1.0 | 0.00 | 0.00 | 0.00 | 46 | 1000.0 |
| 20260504045215 | 57 | 207 | 1.0 | 2.0 | 0.00 | 0.00 | 0.00 | 45 | 1000.0 |
| 20260504044714 | 56 | 219 | 1.0 | 2.0 | 0.00 | 0.00 | 0.00 | 45 | 1000.0 |
| 20260504044211 | 56 | 208 | 2.0 | 2.0 | 0.00 | 0.00 | 0.00 | 44 | 1000.1 |
| 20260504043708 | 57 | 199 | 1.0 | 2.0 | 0.00 | 0.00 | 0.00 | 45 | 1000.3 |
| 20260504043204 | 57 | 203 | 1.0 | 1.0 | 0.00 | 0.00 | 0.00 | 44 | 1000.3 |
| 20260504042702 | 57 | 206 | 1.0 | 1.0 | 0.00 | 0.00 | 0.00 | 44 | 1000.4 |
| 20260504042158 | 57 | 214 | 1.0 | 1.0 | 0.00 | 0.00 | 0.00 | 44 | 1000.4 |
| 20260504041654 | 57 | 200 | 1.0 | 2.0 | 0.00 | 0.00 | 0.00 | 43 | 1000.4 |
| 20260504041150 | 57 | 201 | 1.0 | 2.0 | 0.00 | 0.00 | 0.00 | 43 | 1000.6 |
| 20260504040647 | 57 | 208 | 2.0 | 2.0 | 0.00 | 0.00 | 0.00 | 43 | 1000.8 |
| 20260504040144 | 56 | 212 | 1.0 | 1.0 | 0.00 | 0.00 | 0.00 | 45 | 1000.9 |
| 20260504035641 | 55 | 212 | 1.0 | 1.0 | 0.00 | 0.00 | 0.00 | 45 | 1000.8 |